Sabadell, Spain

3:33 AM CET en Noviembre 17, 2018 (GMT +0100)
Sabadell

Tiempo Historia de LELL - Septiembre, 2018

Change the Weather History Date:

Viernes, Septiembre 14, 2018

  Actual Average (LEBL) Record (LEBL)
Temperature  
Temperatura media 74 ° F -  
Temperatura máxima 82 ° F 75 ° F 83 ° F (2018)
Temperatura mínima 66 ° F 63 ° F 59 ° F (2002)
Cooling Degree Days 9    
Growing Degree Days 24 (Base 50)    
Moisture  
Punto de rocío 66 ° F    
Average Humidity 75    
Maximum Humidity 94    
Minimum Humidity 45    
Precipitación  
Precipitación 0.00 pul - - ()
Presión al nivel del mar  
Presión al nivel del mar 30.07 pul    
Viento  
Velocidad del viento 3 mph ()    
Velocidad máxima del viento 12 mph    
Max Gust Speed -    
Visibilidad 6.0 Millas    
Eventos      
Averages and records for this station are not official NWS values.
T = Trace of Precipitation, MM = Missing Value Source: Averaged Metar Reports

Daily Weather History Graph

Daily Weather History Graph

Search for Another Location

Airport or City:

Astronomía

Sep. 14, 2018 Salida Puesta
Hora real 7:30 AM CEST 8:03 PM CEST
Crepúsculo civil 7:02 AM CEST 8:30 PM CEST
Crepúsculo náutico 6:29 AM CEST 9:03 PM CEST
Crepúsculo astronómico 5:56 AM CEST 9:37 PM CEST
Luna 12:34 PM CEST (9/14) 11:08 PM CEST (9/14)
Horas de luz 13h 28m
Horas de luz
12h 32m
Creciente, 25% of the Moon is Illuminated
Sep 14
Creciente
Sep 17
Cuarto creciente
Sep 25
Luna llena
Oct 2
Cuarto menguante
Oct 9
Nueva

Hourly Weather History & Observations

Hora (CEST) Temp. Índice de calor Punto de rocío Humedad Presión Visibilidad Wind Dir Velocidad del viento Velocidad de ráfagas Precip Eventos Condiciones
12:00 AM 73.4 ° F - 68.0 ° F 83% 30.06 pul 6.2 mi Variable 2.3 mph - N/A   Parcialmente nublado
12:30 AM 73.4 ° F - 68.0 ° F 83% 30.06 pul 6.2 mi Variable 1.2 mph - N/A   Desconocido
1:00 AM 71.6 ° F - 68.0 ° F 88% 30.06 pul 6.2 mi Variable 2.3 mph - N/A   Desconocido
1:30 AM 71.6 ° F - 68.0 ° F 88% 30.06 pul 6.2 mi Variable 2.3 mph - N/A   Desconocido
2:00 AM 71.6 ° F - 68.0 ° F 88% 30.06 pul 6.2 mi Variable 1.2 mph - N/A   Desconocido
3:00 AM 71.6 ° F - 69.8 ° F 94% 30.06 pul 6.2 mi Oeste 4.6 mph - N/A   Desconocido
3:30 AM 71.6 ° F - 69.8 ° F 94% 30.06 pul 6.2 mi ONO 3.5 mph - N/A   Desconocido
4:00 AM 71.6 ° F - 68.0 ° F 88% 30.06 pul - Variable 2.3 mph - N/A   Despejado
4:30 AM 71.6 ° F - 68.0 ° F 88% 30.06 pul 6.2 mi Variable 1.2 mph - N/A   Desconocido
5:00 AM 71.6 ° F - 66.2 ° F 83% 30.06 pul 6.2 mi Sin viento Sin viento - N/A   Desconocido
5:30 AM 69.8 ° F - 66.2 ° F 88% 30.06 pul 5.6 mi Sin viento Sin viento - N/A   Desconocido
6:00 AM 68.0 ° F - 64.4 ° F 88% 30.06 pul 6.2 mi Sin viento Sin viento - N/A   Desconocido
6:30 AM 68.0 ° F - 66.2 ° F 94% 30.06 pul 6.2 mi Sin viento Sin viento - N/A   Desconocido
7:00 AM 66.2 ° F - 64.4 ° F 94% 30.06 pul 6.2 mi ONO 3.5 mph - N/A   Parcialmente nublado
7:30 AM 66.2 ° F - 64.4 ° F 94% 30.06 pul 6.2 mi Variable 2.3 mph - N/A   Nubes dispersas
8:00 AM 68.0 ° F - 64.4 ° F 88% 30.06 pul 5.6 mi ESE 1.2 mph - N/A   Desconocido
8:30 AM 68.0 ° F - 66.2 ° F 94% 30.09 pul 5.6 mi Sin viento Sin viento - N/A   Desconocido
9:00 AM 71.6 ° F - 66.2 ° F 83% 30.09 pul 5.6 mi Sin viento Sin viento - N/A   Desconocido
9:30 AM 71.6 ° F - 66.2 ° F 83% 30.09 pul 5.0 mi Sin viento Sin viento - N/A   Nubes dispersas
10:00 AM 75.2 ° F - 66.2 ° F 73% 30.09 pul 5.0 mi Sin viento Sin viento - N/A   Nubes dispersas
10:30 AM 75.2 ° F - 68.0 ° F 78% 30.09 pul 5.0 mi Variable 2.3 mph - N/A   Nubes dispersas
11:00 AM 77.0 ° F - 68.0 ° F 74% 30.09 pul 5.0 mi Variable 2.3 mph - N/A   Parcialmente nublado
11:30 AM 78.8 ° F - 68.0 ° F 69% 30.12 pul 5.0 mi Variable 3.5 mph - N/A   Parcialmente nublado
12:00 PM 78.8 ° F - 66.2 ° F 65% 30.09 pul 6.2 mi SE 5.8 mph - N/A   Nubes dispersas
12:30 PM 80.6 ° F 83.2 ° F 68.0 ° F 65% 30.09 pul 6.2 mi SE 6.9 mph - N/A   Nubes dispersas
1:00 PM 80.6 ° F 82.7 ° F 66.2 ° F 61% 30.09 pul 6.2 mi SE 5.8 mph - N/A   Parcialmente nublado
1:30 PM 80.6 ° F 82.7 ° F 66.2 ° F 61% 30.09 pul 6.2 mi ESE 8.1 mph - N/A   Parcialmente nublado
2:00 PM 80.6 ° F 83.2 ° F 68.0 ° F 65% 30.09 pul - ESE 9.2 mph - N/A   Despejado
2:30 PM 82.4 ° F 85.4 ° F 68.0 ° F 62% 30.09 pul 6.2 mi ESE 10.4 mph - N/A   Parcialmente nublado
3:00 PM 80.6 ° F 83.9 ° F 69.8 ° F 70% 30.06 pul 6.2 mi ESE 10.4 mph - N/A   Parcialmente nublado
3:30 PM 80.6 ° F 83.9 ° F 69.8 ° F 70% 30.06 pul 6.2 mi ESE 9.2 mph - N/A   Parcialmente nublado
4:00 PM 80.6 ° F 83.2 ° F 68.0 ° F 65% 30.06 pul 6.2 mi ESE 11.5 mph - N/A   Parcialmente nublado
4:30 PM 80.6 ° F 83.2 ° F 68.0 ° F 65% 30.06 pul 6.2 mi ESE 9.2 mph - N/A   Parcialmente nublado
5:00 PM 82.4 ° F 83.9 ° F 64.4 ° F 54% 30.06 pul 6.2 mi SSE 10.4 mph - N/A   Parcialmente nublado
5:30 PM 82.4 ° F 83.4 ° F 62.6 ° F 51% 30.06 pul - Sur 9.2 mph - N/A   Despejado
6:00 PM 82.4 ° F 82.5 ° F 59.0 ° F 45% 30.06 pul - SSE 9.2 mph - N/A   Despejado
6:30 PM 80.6 ° F 81.5 ° F 60.8 ° F 51% 30.06 pul - SSE 6.9 mph - N/A   Despejado
7:00 PM 80.6 ° F 81.5 ° F 60.8 ° F 51% 30.06 pul - Sur 4.6 mph - N/A   Despejado
7:30 PM 78.8 ° F - 60.8 ° F 54% 30.06 pul - Sur 5.8 mph - N/A   Despejado
8:00 PM 78.8 ° F - 62.6 ° F 57% 30.06 pul - SSE 3.5 mph - N/A   Despejado
8:30 PM 77.0 ° F - 62.6 ° F 61% 30.09 pul 6.2 mi Variable 1.2 mph - N/A   Desconocido
9:00 PM 75.2 ° F - 64.4 ° F 69% 30.09 pul 6.2 mi Sin viento Sin viento - N/A   Desconocido
9:30 PM 75.2 ° F - 64.4 ° F 69% 30.09 pul 6.2 mi Variable 2.3 mph - N/A   Desconocido
10:00 PM 73.4 ° F - 64.4 ° F 73% 30.09 pul 6.2 mi Oeste 2.3 mph - N/A   Desconocido
10:30 PM 71.6 ° F - 64.4 ° F 78% 30.09 pul 6.2 mi ONO 3.5 mph - N/A   Desconocido
11:00 PM 71.6 ° F - 64.4 ° F 78% 30.09 pul 6.2 mi Variable 2.3 mph - N/A   Desconocido
11:30 PM 69.8 ° F - 66.2 ° F 88% 30.12 pul 6.2 mi Oeste 3.5 mph - N/A   Desconocido